Temperature
-8 -9 -10 -10 -11 -11 -12 -12 -13 -13 -13 -13 -13 -13 -13 -13 -13 -12 -12 -11 -11 -10 -10 -9 -8 -8 -7 -7 -6 -6 -5 -5 -4 -4 -3 -2 -1 -0 1 2 4 5 7
-9 -9 -10 -10 -11 -12 -12 -12 -13 -13 -13 -13 -13 -13 -13 -13 -13 -12 -12 -11 -11 -10 -10 -9 -8 -8 -7 -7 -7 -6 -6 -5 -5 -4 -4 -3 -2 -1 0 1 3 4 6
-9 -9 -10 -11 -12 -12 -12 -13 -13 -13 -13 -13 -13 -13 -13 -13 -13 -12 -12 -11 -11 -10 -10 -9 -8 -8 -7 -7 -7 -6 -6 -5 -5 -5 -4 -3 -2 -1 -0 1 2 3 4
-9 -10 -10 -11 -12 -12 -13 -13 -13 -13 -13 -13 -13 -13 -13 -13 -12 -12 -12 -11 -10 -10 -10 -9 -9 -8 -8 -7 -7 -6 -6 -6 -5 -5 -4 -3 -3 -2 -1 0 1 2 3
-9 -10 -11 -12 -12 -13 -13 -13 -13 -13 -13 -13 -13 -13 -13 -12 -12 -12 -11 -10 -10 -10 -9 -9 -8 -8 -8 -7 -7 -7 -6 -6 -6 -5 -5 -4 -3 -2 -2 -1 0 2 3
-9 -10 -11 -12 -12 -13 -13 -13 -13 -13 -13 -13 -13 -13 -12 -12 -11 -11 -10 -10 -10 -10 -9 -9 -8 -8 -8 -8 -7 -7 -7 -7 -7 -6 -5 -5 -4 -4 -3 -2 -0 1 2
-9 -10 -11 -12 -12 -13 -13 -13 -13 -13 -13 -13 -13 -13 -12 -12 -11 -10 -10 -10 -10 -10 -9 -9 -9 -8 -8 -8 -8 -8 -7 -7 -7 -7 -7 -6 -6 -5 -4 -2 -1 -0 2
-9 -10 -11 -12 -12 -13 -13 -13 -13 -13 -13 -13 -13 -12 -12 -12 -11 -11 -11 -10 -10 -10 -10 -9 -9 -9 -9 -8 -8 -8 -8 -8 -8 -8 -7 -7 -6 -5 -4 -3 -2 -0 1
-9 -10 -11 -12 -12 -13 -13 -13 -13 -13 -13 -13 -13 -12 -12 -12 -11 -11 -11 -11 -11 -10 -10 -10 -9 -9 -9 -9 -9 -9 -8 -8 -8 -8 -8 -7 -6 -5 -5 -3 -2 -1 0
-9 -10 -11 -11 -12 -13 -13 -13 -13 -13 -13 -13 -13 -13 -12 -12 -12 -11 -11 -11 -11 -11 -11 -10 -10 -10 -10 -10 -10 -9 -9 -9 -9 -8 -8 -7 -6 -6 -5 -4 -3 -2 -1
-9 -10 -10 -11 -12 -12 -12 -13 -13 -13 -13 -13 -13 -13 -12 -13 -12 -12 -11 -12 -12 -12 -11 -11 -11 -11 -11 -11 -11 -11 -11 -10 -9 -9 -8 -8 -7 -6 -5 -5 -4 -3 -1
-9 -9 -10 -11 -11 -12 -12 -12 -13 -13 -13 -13 -13 -13 -13 -13 -13 -12 -12 -12 -12 -12 -12 -12 -12 -12 -11 -11 -11 -11 -11 -10 -10 -9 -9 -8 -8 -7 -6 -6 -5 -3 -2
-8 -9 -9 -10 -11 -11 -12 -12 -12 -13 -13 -13 -13 -13 -13 -13 -13 -13 -13 -13 -13 -13 -13 -13 -13 -12 -12 -11 -12 -11 -11 -11 -10 -10 -10 -10 -10 -9 -7 -6 -5 -4 -3
-8 -9 -9 -10 -10 -11 -11 -12 -12 -13 -13 -13 -13 -13 -13 -13 -13 -13 -13 -13 -13 -13 -13 -13 -13 -13 -12 -12 -12 -12 -12 -12 -12 -12 -11 -11 -10 -9 -8 -7 -6 -5 -3
-8 -8 -9 -9 -10 -10 -10 -11 -12 -12 -13 -13 -13 -13 -13 -13 -12 -12 -13 -13 -14 -14 -13 -13 -13 -13 -13 -13 -13 -13 -13 -13 -12 -12 -12 -11 -11 -10 -9 -8 -7 -6 -5
-8 -8 -9 -10 -10 -10 -10 -10 -10 -11 -12 -12 -13 -13 -13 -13 -13 -13 -13 -13 -14 -14 -13 -14 -14 -14 -14 -14 -14 -14 -14 -14 -13 -13 -13 -12 -12 -11 -10 -10 -9 -8 -7
-8 -8 -9 -9 -10 -10 -10 -10 -10 -10 -10 -11 -12 -12 -12 -12 -13 -13 -13 -13 -14 -14 -14 -14 -14 -14 -14 -15 -15 -15 -15 -14 -14 -14 -13 -13 -12 -12 -11 -11 -10 -9 -9
-7 -8 -8 -9 -9 -9 -10 -10 -10 -10 -10 -10 -11 -11 -12 -12 -12 -13 -13 -13 -13 -13 -14 -14 -14 -14 -14 -15 -15 -15 -15 -15 -14 -14 -14 -14 -13 -13 -12 -12 -11 -11 -10
-7 -7 -8 -8 -8 -9 -9 -9 -10 -10 -10 -10 -10 -10 -11 -11 -11 -12 -12 -13 -13 -13 -14 -14 -14 -14 -14 -15 -15 -15 -15 -15 -15 -14 -14 -14 -14 -14 -13 -13 -12 -12 -11
-6 -7 -7 -8 -8 -8 -9 -9 -10 -10 -10 -10 -10 -10 -11 -11 -11 -11 -11 -12 -13 -13 -13 -13 -14 -14 -14 -14 -15 -15 -15 -15 -15 -15 -14 -14 -14 -14 -14 -13 -13 -13 -12
-6 -6 -7 -7 -7 -7 -8 -9 -9 -9 -10 -10 -10 -10 -11 -11 -11 -11 -11 -11 -12 -12 -13 -13 -13 -14 -14 -14 -14 -14 -15 -15 -15 -15 -14 -14 -14 -14 -14 -14 -14 -13 -13
-6 -6 -6 -6 -7 -7 -8 -8 -9 -9 -10 -10 -10 -10 -10 -11 -11 -11 -11 -11 -11 -11 -12 -12 -13 -13 -13 -14 -14 -14 -14 -14 -14 -14 -14 -14 -14 -14 -14 -14 -14 -14 -13
-5 -6 -6 -6 -6 -7 -7 -8 -8 -9 -9 -10 -10 -11 -11 -11 -11 -11 -11 -10 -10 -11 -11 -11 -12 -12 -13 -13 -14 -14 -14 -14 -14 -14 -14 -14 -14 -14 -14 -14 -14 -14 -14
-5 -6 -6 -6 -6 -6 -7 -7 -8 -8 -9 -9 -10 -11 -11 -11 -11 -11 -10 -10 -10 -10 -10 -11 -11 -11 -12 -13 -13 -13 -14 -14 -14 -14 -14 -14 -14 -14 -14 -14 -14 -14 -14
-5 -6 -6 -6 -6 -7 -7 -7 -8 -8 -9 -9 -10 -10 -10 -11 -11 -11 -10 -10 -10 -10 -10 -10 -10 -11 -11 -12 -12 -13 -13 -13 -13 -14 -14 -14 -14 -14 -13 -14 -14 -14 -14
-5 -6 -6 -6 -6 -7 -7 -7 -8 -8 -8 -9 -9 -10 -10 -11 -11 -11 -10 -10 -10 -9 -9 -9 -10 -10 -11 -11 -12 -12 -13 -13 -13 -13 -13 -13 -13 -13 -13 -13 -13 -13 -13
Wind_Speed
10 10 11 10 12 13 10 11 13 13 16 14 14 13 13 13 11 12 12 13 13 13 13 13 13 11 8 7 7 7 7 8 10 9 8 9 10 10 11 11 12 11 9
10 10 11 11 11 12 13 13 15 13 16 16 14 13 14 14 13 13 14 14 13 14 14 13 12 9 9 8 7 8 8 8 8 10 8 8 9 9 10 10 9 9 7
10 11 11 12 12 13 13 13 14 13 13 15 13 14 15 15 14 14 14 14 14 14 13 12 12 10 9 8 8 7 7 7 6 8 8 6 6 6 7 8 8 6 7
11 11 12 13 13 13 12 12 13 13 13 13 13 14 15 16 15 15 14 14 13 12 11 10 9 9 8 8 7 7 6 7 6 6 6 5 5 5 5 5 5 4 6
11 12 12 12 12 12 12 12 12 12 14 13 14 15 15 15 14 16 13 11 10 9 8 8 7 8 10 8 6 6 6 5 5 5 5 5 5 5 5 5 6 6 6
10 11 12 13 13 12 12 12 13 13 13 14 14 15 17 17 24 22 15 9 8 7 7 7 7 7 10 12 13 13 12 9 7 6 5 6 7 7 7 7 6 4 3
10 11 12 12 12 12 13 13 13 12 12 13 14 15 17 21 28 24 23 13 10 8 7 7 7 6 7 6 10 14 14 16 14 8 7 7 8 8 8 8 7 5 4
10 10 11 11 12 11 11 12 11 10 12 11 13 16 17 22 30 25 22 14 10 11 10 8 7 5 7 8 8 9 9 10 12 8 7 8 8 9 8 7 8 8 6
10 11 12 11 11 11 12 12 10 10 9 11 12 14 16 20 29 27 22 10 11 13 14 13 10 9 16 16 11 9 9 10 14 16 16 15 17 17 13 7 6 4 2
11 11 11 11 11 10 11 10 9 9 10 12 13 13 14 15 26 27 21 10 12 12 12 13 17 17 19 18 10 8 10 9 10 12 13 15 13 14 17 9 6 4 2
10 10 10 10 9 9 9 8 10 10 11 11 11 11 11 16 22 26 24 10 11 12 11 11 12 22 21 21 16 11 13 11 9 9 9 10 10 10 10 9 7 4 2
9 9 9 9 9 10 9 9 9 9 9 9 8 10 9 11 17 20 24 20 16 11 10 9 12 21 21 21 16 18 19 15 9 9 10 11 12 12 11 11 10 7 5
9 9 9 9 8 8 8 8 8 8 7 8 7 9 9 9 11 19 20 20 19 11 9 15 17 19 18 15 19 21 17 11 10 10 11 11 10 11 11 10 10 9 8
9 9 9 8 8 8 7 7 7 7 7 7 7 8 8 8 7 6 6 8 12 11 8 12 16 17 14 15 15 13 11 11 10 10 10 10 10 11 11 11 9 9 7
9 9 9 9 8 8 9 7 9 6 10 9 6 6 7 7 10 15 9 6 5 7 7 6 7 8 9 9 9 9 9 10 11 10 10 10 11 11 11 11 10 9 8
9 9 8 7 8 8 8 10 14 14 17 17 15 13 10 13 15 14 13 12 12 12 7 4 5 6 7 7 8 8 8 9 9 9 9 10 10 11 11 10 10 10 10
9 9 8 9 8 9 9 9 11 14 17 17 17 16 14 15 14 13 11 10 10 9 4 3 3 4 4 5 5 5 6 7 7 7 8 9 9 9 10 10 11 10 10
8 10 10 7 7 8 8 8 9 10 11 11 13 16 16 15 14 13 12 7 4 4 2 2 3 3 3 3 4 4 4 5 5 6 7 7 8 9 9 10 10 11 10
8 8 7 6 7 7 8 8 8 10 10 10 10 11 16 15 14 13 11 4 4 4 4 4 3 3 3 2 3 3 3 4 4 4 5 6 7 7 8 9 9 14 12
6 13 11 7 7 8 8 8 9 10 10 10 10 10 10 8 6 7 6 6 6 6 6 5 5 4 3 3 2 2 2 3 3 3 4 5 5 5 6 8 8 8 8
6 8 13 9 7 8 7 8 9 9 10 11 10 14 19 10 9 9 8 7 7 7 7 6 6 5 4 4 3 3 2 2 2 2 3 3 4 4 4 5 6 7 7
5 5 6 6 7 7 8 8 8 9 10 12 12 13 20 12 10 9 9 8 8 7 7 7 6 6 6 5 5 4 3 3 2 1 1 2 2 3 3 4 5 6 6
4 6 6 6 6 10 10 8 9 10 11 11 12 12 12 12 12 11 11 10 8 7 8 8 7 7 9 10 10 7 5 5 4 3 2 1 1 1 2 3 4 4 5
4 5 6 7 7 7 8 9 9 11 11 12 12 12 13 13 13 14 13 11 10 8 9 9 9 10 12 12 12 12 12 11 9 8 6 3 2 0 1 1 2 2 3
4 4 5 6 7 8 8 9 10 11 12 12 12 13 13 14 14 14 14 13 12 10 10 10 9 11 15 16 15 14 15 14 12 11 9 5 4 3 2 1 1 1 1
3 4 4 5 6 7 7 9 10 11 11 12 12 13 13 14 14 15 14 14 15 12 10 9 9 11 14 16 18 19 18 17 16 14 12 8 5 4 3 2 3 2 2
Wind_Direction
338 334 332 328 327 325 322 321 320 319 322 322 321 320 318 316 314 313 311 308 307 308 308 308 304 298 292 293 294 295 295 290 289 298 304 310 309 312 313 314 316 311 307
335 334 331 328 326 326 324 322 322 321 322 322 321 319 319 318 314 310 308 309 304 305 306 309 309 307 302 298 296 296 295 292 293 299 303 307 303 303 307 309 309 305 303
336 335 332 331 330 329 326 324 325 324 324 323 323 321 318 315 312 306 301 300 299 298 299 303 304 305 303 302 300 299 299 299 294 295 298 299 295 306 314 304 301 303 304
339 336 335 333 331 328 326 327 328 329 328 328 326 323 321 318 311 302 299 297 297 296 296 300 303 304 303 306 309 312 313 310 308 307 306 308 309 314 318 316 315 316 300
337 337 335 331 329 329 330 330 331 332 336 331 331 329 327 324 314 308 305 306 301 302 305 307 310 325 339 347 357 358 353 351 345 338 333 332 341 344 339 327 313 304 287
334 333 333 334 335 336 335 337 336 335 333 335 335 334 333 333 332 342 355 345 335 327 325 326 327 341 356 6 15 21 23 22 13 360 349 349 347 340 327 318 314 303 285
332 333 335 336 338 338 341 342 339 336 336 338 337 339 338 337 349 5 12 10 7 1 351 348 351 2 17 11 22 30 26 25 25 18 0 349 340 338 326 313 306 298 283
332 334 337 338 337 337 340 341 338 334 338 339 338 342 343 344 357 10 18 14 15 13 8 360 5 22 42 50 41 34 24 18 18 16 5 352 349 345 330 307 297 290 278
340 340 339 339 339 340 343 340 336 333 336 341 344 342 344 345 358 17 28 16 16 15 14 18 34 43 53 51 40 32 24 13 12 15 15 11 6 3 2 348 327 292 277
340 336 335 338 337 337 338 334 332 334 339 342 343 342 342 344 359 16 32 25 20 20 19 18 32 46 48 47 36 26 27 9 0 1 4 4 0 359 5 2 342 315 296
331 332 334 335 332 337 334 329 331 337 337 335 337 338 340 352 0 12 28 34 27 23 26 22 27 38 40 39 37 29 27 19 1 1 1 360 359 359 356 351 345 329 310
329 331 330 329 334 345 329 326 327 330 330 330 335 341 344 346 0 10 22 30 36 26 22 21 27 34 34 33 32 27 25 21 10 10 9 6 1 357 351 346 346 348 345
331 330 325 326 324 327 322 320 324 328 331 338 341 343 343 346 350 11 20 25 28 29 20 27 31 34 31 27 26 26 23 18 14 13 8 2 355 350 351 353 356 359 13
329 326 326 326 327 324 325 328 328 327 327 332 340 339 335 336 334 349 4 21 26 29 22 23 27 30 31 26 24 20 17 18 18 10 2 357 356 1 6 5 5 6 25
327 327 327 331 325 325 331 328 332 320 337 342 326 321 333 331 348 6 15 14 17 29 24 15 16 18 20 17 17 16 14 14 14 8 6 4 6 7 9 9 15 23 37
335 334 329 329 331 331 327 329 337 343 343 345 343 341 335 341 347 356 2 6 14 21 29 13 14 14 15 13 12 10 11 12 9 8 9 8 8 9 11 15 21 28 35
330 330 328 333 331 331 331 330 329 333 339 342 342 340 336 335 339 341 345 354 360 12 23 352 350 353 356 358 358 359 360 360 3 9 11 9 10 12 16 20 22 27 33
327 330 334 323 323 323 322 323 325 328 330 330 334 335 333 330 327 326 327 334 329 333 291 291 300 310 320 332 342 347 349 354 3 7 8 9 11 16 20 21 24 30 33
327 327 326 323 324 323 323 325 329 329 328 326 326 330 331 325 320 318 318 294 272 271 264 261 261 269 278 293 312 329 340 348 358 1 8 9 10 18 24 23 26 34 39
321 336 343 335 329 329 329 333 336 334 331 329 329 326 323 319 312 310 303 279 267 261 254 250 247 245 244 251 269 293 323 340 351 359 3 6 9 18 24 26 29 33 36
317 328 343 338 328 326 328 333 333 333 332 331 329 329 339 341 324 312 303 291 275 264 255 247 240 235 228 224 229 243 261 293 320 340 354 3 10 18 20 28 32 36 41
320 321 325 326 329 331 339 335 334 334 334 334 332 333 339 340 326 317 307 296 283 269 256 246 238 228 218 212 211 215 224 236 246 267 325 356 12 21 26 31 35 37 42
329 328 332 333 331 341 345 336 338 338 337 334 334 336 337 336 333 329 320 310 297 282 264 249 240 230 225 220 215 206 207 216 214 202 206 239 7 23 33 37 38 42 42
333 332 334 337 339 340 338 338 338 339 338 336 336 337 337 335 333 331 329 321 310 296 279 257 242 232 223 219 216 214 215 219 216 208 199 193 201 200 70 55 48 51 49
334 331 332 333 337 338 337 337 338 338 338 337 337 336 335 334 334 333 330 327 320 310 295 277 254 236 227 220 214 212 216 220 217 210 202 191 192 197 190 172 139 102 89
329 329 327 329 333 335 336 335 335 336 336 336 335 333 333 333 333 332 332 332 330 323 310 296 268 245 228 219 217 216 219 220 219 215 198 188 188 197 192 187 183 168 139
Height
1549 1543 1536 1529 1523 1516 1510 1503 1497 1490 1484 1478 1471 1465 1460 1454 1449 1445 1440 1437 1433 1430 1427 1424 1422 1420 1418 1417 1415 1413 1411 1410 1407 1405 1405 1404 1403 1402 1403 1403 1405 1408 1411
1547 1541 1534 1527 1520 1514 1507 1501 1495 1488 1482 1475 1469 1463 1457 1451 1445 1440 1436 1433 1429 1426 1423 1420 1418 1416 1415 1413 1411 1409 1407 1406 1404 1402 1401 1401 1400 1400 1399 1399 1401 1403 1406
1546 1538 1531 1525 1518 1512 1506 1499 1493 1486 1479 1473 1466 1460 1453 1447 1441 1436 1432 1428 1425 1422 1419 1417 1415 1413 1411 1410 1408 1406 1404 1402 1401 1399 1398 1398 1397 1396 1395 1396 1397 1399 1402
1544 1537 1530 1524 1517 1511 1504 1498 1491 1484 1478 1471 1464 1458 1451 1443 1437 1432 1428 1424 1420 1418 1416 1414 1413 1411 1409 1407 1405 1403 1401 1399 1398 1396 1395 1394 1394 1393 1392 1392 1393 1395 1398
1542 1536 1529 1523 1517 1510 1503 1497 1490 1484 1477 1470 1463 1456 1448 1440 1433 1428 1424 1420 1416 1414 1413 1411 1410 1409 1407 1406 1404 1401 1399 1397 1395 1394 1392 1391 1391 1390 1390 1390 1391 1392 1395
1542 1535 1529 1522 1516 1509 1503 1496 1489 1483 1476 1469 1462 1455 1447 1438 1431 1425 1421 1417 1414 1412 1411 1409 1408 1407 1406 1404 1402 1400 1398 1396 1394 1392 1391 1390 1389 1388 1387 1387 1388 1390 1392
1541 1535 1528 1522 1515 1509 1503 1496 1489 1483 1476 1469 1462 1455 1447 1439 1432 1427 1422 1418 1415 1412 1411 1409 1407 1406 1405 1403 1402 1400 1398 1396 1394 1392 1390 1388 1387 1385 1384 1384 1384 1385 1387
1541 1534 1528 1521 1515 1509 1503 1496 1490 1484 1477 1471 1464 1457 1450 1442 1436 1429 1424 1421 1417 1414 1412 1410 1407 1406 1405 1404 1402 1400 1398 1395 1393 1391 1389 1387 1385 1383 1382 1381 1381 1382 1384
1540 1534 1527 1521 1515 1509 1503 1497 1491 1485 1479 1473 1467 1460 1453 1446 1440 1435 1429 1425 1421 1418 1415 1412 1411 1409 1408 1406 1404 1401 1398 1396 1393 1391 1388 1386 1383 1381 1379 1378 1378 1379 1380
1540 1534 1528 1522 1516 1510 1504 1498 1492 1487 1481 1475 1469 1464 1457 1451 1445 1440 1435 1430 1426 1423 1419 1416 1415 1414 1411 1409 1405 1403 1399 1397 1394 1391 1388 1385 1382 1379 1376 1375 1375 1376 1378
1540 1535 1529 1523 1516 1511 1505 1499 1494 1488 1483 1477 1472 1466 1461 1455 1450 1445 1440 1435 1431 1428 1424 1421 1419 1417 1415 1412 1408 1405 1403 1399 1395 1392 1388 1384 1381 1378 1376 1374 1373 1374 1375
1541 1535 1529 1523 1517 1511 1505 1499 1494 1488 1483 1478 1473 1468 1463 1458 1453 1450 1445 1441 1437 1433 1430 1426 1424 1420 1417 1414 1411 1408 1404 1401 1397 1393 1389 1385 1381 1378 1375 1373 1372 1372 1373
1540 1535 1529 1524 1518 1512 1505 1499 1494 1489 1483 1479 1474 1469 1465 1461 1456 1452 1448 1444 1440 1436 1433 1431 1427 1423 1419 1416 1413 1410 1406 1402 1398 1395 1391 1387 1384 1380 1377 1374 1373 1372 1373
1540 1534 1529 1523 1517 1512 1506 1500 1494 1489 1484 1480 1475 1470 1466 1462 1458 1454 1450 1446 1442 1438 1435 1432 1429 1425 1422 1418 1415 1411 1408 1405 1402 1398 1395 1391 1387 1383 1379 1376 1374 1373 1373
1539 1534 1528 1523 1517 1512 1506 1501 1495 1490 1486 1481 1476 1472 1467 1463 1460 1457 1453 1449 1445 1441 1437 1434 1430 1426 1423 1420 1417 1414 1411 1408 1404 1401 1398 1394 1390 1386 1383 1379 1377 1375 1374
1537 1532 1527 1522 1517 1512 1506 1501 1497 1491 1486 1481 1477 1472 1468 1465 1460 1457 1454 1450 1447 1443 1439 1435 1432 1429 1426 1423 1420 1417 1414 1411 1408 1405 1401 1398 1394 1391 1388 1385 1382 1379 1378
1537 1532 1527 1522 1516 1511 1506 1500 1495 1491 1486 1481 1475 1471 1467 1463 1460 1456 1453 1449 1446 1443 1440 1437 1434 1431 1428 1425 1423 1420 1417 1414 1411 1408 1405 1402 1399 1396 1393 1390 1388 1385 1384
1537 1532 1527 1521 1516 1511 1506 1500 1495 1489 1484 1479 1475 1470 1465 1461 1458 1454 1451 1448 1444 1442 1439 1437 1434 1432 1429 1427 1424 1422 1419 1417 1414 1412 1409 1406 1403 1401 1398 1396 1394 1392 1390
1536 1531 1526 1521 1516 1511 1506 1500 1495 1490 1484 1479 1474 1469 1465 1460 1456 1452 1448 1445 1441 1439 1437 1435 1433 1431 1429 1427 1425 1423 1421 1419 1417 1414 1412 1410 1408 1406 1403 1402 1400 1399 1397
1535 1531 1526 1521 1516 1510 1505 1499 1494 1489 1484 1478 1473 1468 1463 1458 1454 1449 1446 1442 1438 1436 1434 1432 1430 1429 1428 1426 1425 1423 1422 1420 1419 1417 1415 1413 1412 1410 1409 1407 1406 1404 1403
1535 1530 1526 1521 1516 1510 1504 1499 1494 1489 1483 1478 1473 1468 1464 1458 1453 1448 1443 1439 1435 1432 1430 1427 1426 1425 1424 1424 1423 1422 1422 1421 1420 1418 1417 1416 1415 1414 1413 1412 1411 1410 1410
1534 1530 1526 1521 1515 1510 1505 1499 1494 1488 1483 1478 1472 1467 1462 1457 1452 1446 1441 1437 1432 1428 1425 1423 1421 1420 1420 1420 1420 1420 1420 1420 1420 1419 1419 1418 1417 1417 1416 1416 1415 1415 1415
1534 1530 1526 1521 1516 1511 1505 1500 1494 1488 1483 1477 1472 1466 1461 1455 1450 1445 1440 1434 1429 1425 1421 1418 1416 1415 1415 1415 1416 1417 1417 1418 1419 1419 1419 1419 1419 1419 1419 1419 1419 1419 1419
1533 1530 1526 1521 1516 1511 1505 1500 1494 1488 1482 1477 1471 1466 1460 1455 1449 1444 1438 1432 1427 1422 1417 1414 1411 1410 1409 1409 1410 1412 1414 1415 1416 1418 1418 1419 1420 1420 1420 1421 1421 1421 1422
1532 1529 1525 1521 1516 1511 1506 1500 1494 1489 1483 1477 1471 1465 1459 1454 1448 1442 1436 1431 1425 1419 1414 1410 1407 1405 1404 1404 1405 1407 1409 1411 1413 1415 1417 1418 1419 1420 1421 1421 1422 1423 1423
1531 1528 1525 1521 1516 1511 1506 1500 1495 1489 1483 1477 1471 1465 1459 1453 1447 1441 1435 1429 1423 1417 1412 1407 1403 1401 1399 1398 1399 1401 1404 1406 1409 1412 1414 1416 1418 1419 1420 1421 1422 1423 1424